Dewpoint
61 62 65 64 63 66 66 65 64 63 62 61 60 60 63 62 56 57 61 57 63 61 63 64 66 67 67 67 67 66 66 66 65
62 62 64 63 63 65 67 65 64 63 62 60 60 60 62 58 56 58 60 60 60 61 62 63 64 65 65 65 65 64 65 66 66
61 61 64 65 62 67 67 65 64 63 61 60 60 62 62 58 57 59 59 63 63 63 62 63 61 62 62 62 62 65 66 65 64
61 63 64 64 63 66 65 65 63 62 61 61 60 61 62 56 58 60 60 62 62 66 62 61 61 62 63 65 65 64 64 63 62
63 63 64 65 65 63 63 62 62 62 62 62 63 62 63 57 58 60 60 63 65 66 64 63 64 66 66 65 64 63 62 61 61
60 61 63 65 63 62 62 62 62 63 63 62 61 60 62 61 59 60 64 62 63 64 63 65 65 64 63 63 63 62 61 60 60
57 60 63 64 63 61 61 63 63 60 56 56 59 58 60 60 59 61 64 63 61 63 64 65 64 63 62 62 61 60 60 59 59
57 59 60 61 59 58 62 62 60 52 52 54 55 57 58 60 61 63 64 62 62 63 64 63 62 61 61 60 60 59 58 59 58
55 57 59 59 57 56 59 59 57 51 51 51 57 58 59 60 61 62 63 64 64 65 63 62 61 60 59 59 59 58 58 59 60
53 53 57 57 58 56 56 54 54 51 50 53 57 58 59 60 61 62 62 64 65 64 63 61 60 59 59 58 57 59 60 59 58
52 51 55 54 56 55 54 54 53 52 51 53 56 58 58 57 58 61 61 64 64 63 62 60 59 59 58 59 60 59 58 59 59
52 52 53 53 54 53 54 53 52 52 52 51 53 56 56 55 55 57 58 62 62 62 61 59 58 58 61 60 59 58 60 58 57
52 52 52 50 53 53 54 54 53 53 52 51 51 54 55 54 54 56 57 59 60 61 61 60 60 61 60 59 58 59 58 57 55
51 51 51 49 53 53 54 53 52 52 50 49 50 52 54 54 54 55 55 58 58 58 61 61 60 60 59 57 59 58 57 55 54
50 50 49 48 52 52 52 52 52 50 47 45 46 47 49 54 54 53 55 53 55 55 56 57 58 59 58 55 58 58 56 54 53
48 48 47 48 51 51 51 50 49 47 45 44 44 44 45 48 53 53 53 52 51 53 55 55 55 56 59 59 57 56 55 53 52
46 46 46 46 50 50 50 49 48 45 44 42 42 40 40 43 45 53 52 51 51 51 53 54 54 51 51 54 57 55 53 53 51
45 45 45 46 48 50 49 48 45 43 44 42 42 39 38 40 43 45 51 50 50 50 51 52 51 49 48 49 51 55 54 52 51
44 45 45 46 48 49 48 47 45 43 42 43 44 44 41 39 38 43 44 50 49 49 49 49 48 47 46 48 48 51 53 51 50
45 45 45 47 49 49 48 46 45 44 43 43 44 44 41 39 39 39 41 43 47 48 47 47 46 43 43 42 45 48 49 49 49
Lifted_Index
6 6 6 5 5 4 4 4 5 6 7 7 7 7 7 7 6 6 6 6 5 5 4 3 3 2 2 2 2 2 2 2 2
7 6 6 5 5 4 3 4 5 6 7 7 7 7 7 7 6 6 6 5 5 5 4 4 3 3 3 3 3 2 2 2 2
7 7 6 6 5 4 3 4 5 6 7 7 7 7 7 7 6 6 6 5 5 4 4 4 5 4 4 4 3 3 2 2 3
7 7 6 6 5 5 4 5 6 6 7 7 7 7 7 7 6 6 5 5 4 3 4 4 4 4 4 3 3 3 3 3 4
7 7 6 6 6 6 6 6 6 7 7 7 7 7 6 6 6 5 5 5 4 3 3 3 3 3 3 3 3 3 4 4 5
8 7 6 6 6 7 6 6 7 7 7 7 7 6 6 6 6 5 5 4 4 3 3 3 3 3 3 3 3 4 4 5 5
8 7 7 6 7 7 7 6 7 8 8 7 6 6 5 5 5 5 4 4 4 4 3 3 3 3 4 4 4 4 5 5 5
8 7 7 7 7 7 7 7 8 8 8 7 6 5 5 5 4 4 4 4 4 3 3 3 4 4 4 5 5 5 5 5 5
8 7 7 7 7 8 7 7 8 8 8 7 6 5 5 4 4 4 3 3 3 3 3 4 4 5 5 6 6 6 6 5 5
8 8 7 7 7 8 8 8 8 8 8 7 6 5 4 4 3 3 3 2 2 2 3 4 5 5 6 6 6 6 6 5 5
8 8 7 7 7 7 8 8 8 8 7 7 6 5 4 4 3 3 3 2 2 3 4 4 5 5 5 5 5 5 5 5 5
8 8 8 7 7 7 7 8 8 8 7 7 6 6 5 4 4 3 3 3 3 3 4 5 5 5 4 4 5 5 5 6 6
8 8 8 8 7 7 7 7 8 8 7 7 7 6 6 5 4 4 3 3 3 4 4 4 4 4 4 4 5 5 5 6 7
7 8 8 8 8 7 7 7 7 8 8 8 7 7 6 5 4 4 3 3 4 4 4 4 4 4 4 5 5 5 6 7 7
7 7 8 8 8 7 7 7 7 8 8 8 8 7 7 6 4 3 3 4 4 5 5 5 5 4 5 5 5 5 6 7 8
7 8 8 8 8 7 7 7 8 8 9 9 9 9 8 7 5 4 4 4 5 5 5 5 5 5 5 5 5 5 6 7 8
7 8 9 9 8 7 8 8 8 9 9 10 11 11 10 9 7 6 5 5 5 6 6 6 6 6 5 5 5 6 7 8 8
8 8 9 9 8 8 8 8 9 10 10 11 11 11 11 11 10 8 6 5 5 6 6 6 7 7 6 6 6 7 7 8 9
8 8 9 9 8 8 8 8 9 10 10 11 11 11 11 11 11 10 8 7 6 7 7 7 7 7 7 8 8 8 9 9 9
8 8 9 8 8 8 8 8 9 10 10 11 11 11 11 11 11 11 10 8 8 8 7 7 8 8 8 8 9 10 10 10 10